| time (UTC) | temp C | wind direction | speed KPH | gust KPH | rain 1hr cm | rain 24hr cm | rain mn cm | humidity % | barometer mb |
| 20260906165025 | 16 | 276 | 6.4 | 16.1 | 0.00 | 0.03 | 0.00 | 65 | 1025.1 |
| 20260906164523 | 16 | 289 | 9.7 | 17.7 | 0.00 | 0.03 | 0.00 | 65 | 1025.0 |
| 20260906164021 | 16 | 284 | 8.0 | 14.5 | 0.00 | 0.03 | 0.00 | 65 | 1025.1 |
| 20260906163519 | 16 | 284 | 8.0 | 22.5 | 0.00 | 0.03 | 0.00 | 65 | 1025.0 |
| 20260906163017 | 16 | 291 | 9.7 | 20.9 | 0.00 | 0.03 | 0.00 | 65 | 1024.9 |
| 20260906162535 | 16 | 285 | 8.0 | 16.1 | 0.00 | 0.03 | 0.00 | 65 | 1024.9 |
| 20260906162034 | 16 | 284 | 9.7 | 20.9 | 0.00 | 0.03 | 0.00 | 65 | 1024.8 |
| 20260906161531 | 16 | 292 | 8.0 | 20.9 | 0.00 | 0.03 | 0.00 | 65 | 1024.8 |
| 20260906161030 | 16 | 294 | 9.7 | 27.4 | 0.00 | 0.03 | 0.00 | 64 | 1024.7 |
| 20260906160528 | 16 | 281 | 9.7 | 17.7 | 0.00 | 0.03 | 0.00 | 64 | 1024.6 |
| 20260906160026 | 16 | 275 | 8.0 | 20.9 | 0.00 | 0.03 | 0.00 | 64 | 1024.6 |
| 20260906155524 | 16 | 296 | 9.7 | 17.7 | 0.00 | 0.03 | 0.00 | 64 | 1024.6 |
| 20260906155022 | 16 | 292 | 11.3 | 22.5 | 0.00 | 0.03 | 0.00 | 64 | 1024.5 |
| 20260906154520 | 16 | 280 | 12.9 | 27.4 | 0.00 | 0.03 | 0.00 | 64 | 1024.5 |
| 20260906154018 | 16 | 292 | 9.7 | 24.1 | 0.00 | 0.03 | 0.00 | 64 | 1024.5 |
| 20260906153516 | 16 | 303 | 11.3 | 33.8 | 0.00 | 0.03 | 0.00 | 63 | 1024.5 |
| 20260906153034 | 17 | 287 | 14.5 | 30.6 | 0.00 | 0.03 | 0.00 | 63 | 1024.5 |
| 20260906152532 | 17 | 282 | 12.9 | 27.4 | 0.00 | 0.03 | 0.00 | 63 | 1024.3 |
| 20260906152030 | 17 | 289 | 11.3 | 29.0 | 0.00 | 0.03 | 0.00 | 63 | 1024.3 |
| 20260906151528 | 17 | 285 | 16.1 | 30.6 | 0.00 | 0.03 | 0.00 | 63 | 1024.2 |
| 20260906151026 | 17 | 273 | 12.9 | 29.0 | 0.00 | 0.03 | 0.00 | 63 | 1024.2 |
| 20260906150524 | 17 | 296 | 11.3 | 22.5 | 0.00 | 0.03 | 0.00 | 64 | 1024.1 |
| 20260906150043 | 17 | 294 | 9.7 | 35.4 | 0.00 | 0.03 | 0.00 | 63 | 1024.2 |
| 20260906150022 | 17 | 313 | 12.9 | 29.0 | 0.00 | 0.03 | 0.00 | 63 | 1024.1 |
| 20260906145520 | 17 | 294 | 9.7 | 35.4 | 0.00 | 0.03 | 0.00 | 63 | 1024.2 |
| 20260906145018 | 17 | 285 | 11.3 | 27.4 | 0.00 | 0.03 | 0.00 | 63 | 1024.1 |
| 20260906144516 | 17 | 298 | 11.3 | 29.0 | 0.00 | 0.03 | 0.00 | 62 | 1024.1 |
| 20260906144034 | 17 | 288 | 11.3 | 27.4 | 0.00 | 0.03 | 0.00 | 63 | 1024.2 |
| 20260906143532 | 17 | 291 | 11.3 | 27.4 | 0.00 | 0.03 | 0.00 | 62 | 1024.0 |
| 20260906143030 | 17 | 293 | 16.1 | 27.4 | 0.00 | 0.03 | 0.00 | 63 | 1024.0 |
| 20260906142528 | 17 | 301 | 12.9 | 27.4 | 0.00 | 0.03 | 0.00 | 63 | 1023.9 |
| 20260906142027 | 17 | 294 | 16.1 | 35.4 | 0.00 | 0.03 | 0.00 | 62 | 1023.9 |
| 20260906141525 | 17 | 281 | 12.9 | 30.6 | 0.00 | 0.03 | 0.00 | 62 | 1023.8 |
| 20260906141023 | 17 | 303 | 12.9 | 25.7 | 0.00 | 0.03 | 0.00 | 62 | 1023.8 |
| 20260906140521 | 17 | 291 | 12.9 | 27.4 | 0.00 | 0.03 | 0.00 | 63 | 1023.8 |
| 20260906140020 | 17 | 292 | 16.1 | 30.6 | 0.00 | 0.03 | 0.00 | 64 | 1023.7 |
| 20260906135518 | 17 | 273 | 11.3 | 27.4 | 0.00 | 0.03 | 0.00 | 64 | 1023.7 |
| 20260906135035 | 17 | 291 | 14.5 | 27.4 | 0.00 | 0.03 | 0.00 | 64 | 1023.7 |
| 20260906134533 | 17 | 294 | 14.5 | 30.6 | 0.00 | 0.03 | 0.00 | 64 | 1023.7 |
| 20260906134031 | 17 | 284 | 16.1 | 35.4 | 0.00 | 0.03 | 0.00 | 64 | 1023.7 |
| 20260906133529 | 17 | 280 | 16.1 | 35.4 | 0.00 | 0.03 | 0.00 | 64 | 1023.7 |
| 20260906133027 | 17 | 287 | 14.5 | 25.7 | 0.00 | 0.03 | 0.00 | 65 | 1023.6 |
| 20260906132526 | 16 | 287 | 12.9 | 29.0 | 0.00 | 0.03 | 0.00 | 65 | 1023.6 |
| 20260906132024 | 16 | 294 | 14.5 | 30.6 | 0.00 | 0.03 | 0.00 | 66 | 1023.5 |
| 20260906131522 | 16 | 286 | 14.5 | 33.8 | 0.00 | 0.03 | 0.00 | 67 | 1023.5 |
| 20260906131019 | 16 | 296 | 12.9 | 29.0 | 0.00 | 0.03 | 0.00 | 67 | 1023.6 |
| 20260906130518 | 16 | 290 | 14.5 | 33.8 | 0.00 | 0.03 | 0.00 | 68 | 1023.5 |
| 20260906130036 | 16 | 293 | 16.1 | 37.0 | 0.00 | 0.03 | 0.00 | 68 | 1023.6 |
| 20260906125534 | 16 | 273 | 16.1 | 29.0 | 0.00 | 0.03 | 0.00 | 67 | 1023.4 |
| 20260906125032 | 16 | 290 | 12.9 | 29.0 | 0.00 | 0.03 | 0.00 | 66 | 1023.4 |
| 20260906124530 | 16 | 281 | 14.5 | 25.7 | 0.00 | 0.03 | 0.00 | 66 | 1023.3 |
| 20260906124027 | 16 | 296 | 12.9 | 29.0 | 0.00 | 0.03 | 0.00 | 66 | 1023.3 |
| 20260906123526 | 16 | 285 | 16.1 | 30.6 | 0.00 | 0.03 | 0.00 | 66 | 1023.3 |
| 20260906123023 | 16 | 297 | 16.1 | 33.8 | 0.00 | 0.03 | 0.00 | 66 | 1023.3 |
| 20260906122522 | 17 | 278 | 14.5 | 33.8 | 0.00 | 0.03 | 0.00 | 65 | 1023.2 |
| 20260906122020 | 17 | 277 | 17.7 | 37.0 | 0.00 | 0.03 | 0.00 | 65 | 1023.2 |
| 20260906121518 | 17 | 276 | 14.5 | 29.0 | 0.00 | 0.03 | 0.00 | 65 | 1023.1 |
| 20260906121048 | 16 | 290 | 16.1 | 33.8 | 0.00 | 0.03 | 0.00 | 66 | 1023.0 |
| 20260906121016 | 16 | 290 | 16.1 | 33.8 | 0.00 | 0.03 | 0.00 | 66 | 1023.0 |
| 20260906120534 | 16 | 294 | 12.9 | 33.8 | 0.00 | 0.03 | 0.00 | 67 | 1023.1 |
| 20260906120032 | 16 | 295 | 14.5 | 29.0 | 0.00 | 0.03 | 0.00 | 67 | 1023.0 |
| 20260906115531 | 16 | 286 | 17.7 | 40.2 | 0.00 | 0.03 | 0.00 | 65 | 1022.9 |
| 20260906115029 | 16 | 293 | 17.7 | 33.8 | 0.00 | 0.03 | 0.00 | 66 | 1022.9 |
| 20260906114526 | 16 | 290 | 17.7 | 40.2 | 0.00 | 0.03 | 0.00 | 67 | 1022.8 |
| 20260906114024 | 16 | 278 | 12.9 | 29.0 | 0.00 | 0.03 | 0.00 | 67 | 1022.8 |
| 20260906113522 | 16 | 290 | 14.5 | 35.4 | 0.00 | 0.03 | 0.00 | 67 | 1022.7 |
| 20260906113021 | 16 | 296 | 16.1 | 30.6 | 0.00 | 0.03 | 0.00 | 67 | 1022.7 |
| 20260906112519 | 16 | 300 | 17.7 | 35.4 | 0.00 | 0.03 | 0.00 | 67 | 1022.6 |
| 20260906112017 | 16 | 280 | 17.7 | 29.0 | 0.00 | 0.03 | 0.00 | 68 | 1022.5 |
| 20260906111535 | 15 | 294 | 16.1 | 29.0 | 0.00 | 0.03 | 0.00 | 69 | 1022.5 |
| 20260906111033 | 15 | 300 | 16.1 | 38.6 | 0.00 | 0.03 | 0.00 | 69 | 1022.5 |
| 20260906110531 | 15 | 304 | 16.1 | 30.6 | 0.00 | 0.03 | 0.00 | 69 | 1022.5 |
| 20260906110030 | 15 | 287 | 14.5 | 29.0 | 0.00 | 0.03 | 0.00 | 69 | 1022.6 |
| 20260906105527 | 15 | 295 | 16.1 | 35.4 | 0.00 | 0.03 | 0.00 | 70 | 1022.5 |
| 20260906105025 | 15 | 287 | 14.5 | 27.4 | 0.00 | 0.03 | 0.00 | 70 | 1022.4 |
| 20260906104524 | 15 | 280 | 17.7 | 41.8 | 0.00 | 0.03 | 0.00 | 70 | 1022.3 |
| 20260906104022 | 15 | 294 | 14.5 | 27.4 | 0.00 | 0.03 | 0.00 | 70 | 1022.1 |
| 20260906103520 | 15 | 287 | 14.5 | 35.4 | 0.00 | 0.03 | 0.00 | 71 | 1022.1 |
| 20260906103018 | 15 | 290 | 9.7 | 20.9 | 0.00 | 0.03 | 0.00 | 71 | 1022.0 |
| 20260906102516 | 15 | 294 | 16.1 | 33.8 | 0.00 | 0.03 | 0.00 | 71 | 1022.0 |
| 20260906102034 | 15 | 296 | 17.7 | 37.0 | 0.00 | 0.03 | 0.00 | 70 | 1021.9 |
| 20260906101533 | 15 | 296 | 14.5 | 33.8 | 0.00 | 0.03 | 0.00 | 72 | 1021.9 |
| 20260906101031 | 15 | 286 | 14.5 | 24.1 | 0.00 | 0.03 | 0.00 | 72 | 1021.8 |
| 20260906100529 | 15 | 278 | 14.5 | 35.4 | 0.00 | 0.03 | 0.00 | 73 | 1021.8 |
| 20260906100027 | 15 | 291 | 19.3 | 46.7 | 0.00 | 0.03 | 0.00 | 73 | 1021.8 |
| 20260906095525 | 14 | 289 | 14.5 | 25.7 | 0.00 | 0.03 | 0.00 | 73 | 1021.6 |
| 20260906095023 | 14 | 279 | 17.7 | 37.0 | 0.00 | 0.03 | 0.00 | 73 | 1021.6 |
| 20260906094521 | 14 | 295 | 11.3 | 24.1 | 0.00 | 0.03 | 0.00 | 73 | 1021.6 |
| 20260906094020 | 15 | 284 | 14.5 | 25.7 | 0.00 | 0.03 | 0.00 | 72 | 1021.4 |
| 20260906093518 | 15 | 298 | 12.9 | 35.4 | 0.00 | 0.03 | 0.00 | 72 | 1021.3 |
| 20260906093048 | 15 | 284 | 16.1 | 41.8 | 0.00 | 0.03 | 0.00 | 72 | 1021.4 |
| 20260906093016 | 15 | 284 | 16.1 | 41.8 | 0.00 | 0.03 | 0.00 | 72 | 1021.4 |
| 20260906092534 | 15 | 280 | 14.5 | 43.5 | 0.00 | 0.03 | 0.00 | 72 | 1021.3 |
| 20260906092032 | 14 | 280 | 16.1 | 33.8 | 0.00 | 0.03 | 0.00 | 72 | 1021.2 |
| 20260906091530 | 14 | 286 | 12.9 | 33.8 | 0.00 | 0.03 | 0.00 | 73 | 1021.3 |
| 20260906091028 | 14 | 275 | 14.5 | 29.0 | 0.00 | 0.03 | 0.00 | 74 | 1021.2 |
| 20260906090527 | 13 | 281 | 12.9 | 35.4 | 0.00 | 0.03 | 0.00 | 75 | 1021.2 |
| 20260906090025 | 13 | 290 | 11.3 | 25.7 | 0.00 | 0.03 | 0.00 | 76 | 1021.2 |
| 20260906085523 | 13 | 293 | 11.3 | 27.4 | 0.00 | 0.03 | 0.00 | 76 | 1021.2 |
| 20260906085021 | 13 | 286 | 14.5 | 40.2 | 0.00 | 0.03 | 0.00 | 75 | 1021.2 |
| 20260906084519 | 13 | 291 | 9.7 | 20.9 | 0.00 | 0.03 | 0.00 | 74 | 1021.2 |
| 20260906084017 | 13 | 275 | 12.9 | 29.0 | 0.00 | 0.03 | 0.00 | 73 | 1021.1 |
| 20260906083535 | 13 | 278 | 11.3 | 30.6 | 0.00 | 0.03 | 0.00 | 73 | 1021.0 |
| 20260906083033 | 13 | 285 | 14.5 | 35.4 | 0.00 | 0.03 | 0.00 | 73 | 1020.9 |
| 20260906082531 | 13 | 304 | 11.3 | 29.0 | 0.00 | 0.03 | 0.00 | 73 | 1020.8 |
| 20260906082029 | 13 | 290 | 12.9 | 25.7 | 0.00 | 0.03 | 0.00 | 74 | 1020.7 |
| 20260906081527 | 13 | 287 | 12.9 | 27.4 | 0.00 | 0.03 | 0.00 | 74 | 1020.7 |
| 20260906081025 | 13 | 285 | 9.7 | 27.4 | 0.00 | 0.03 | 0.00 | 75 | 1020.8 |
| 20260906080523 | 13 | 283 | 8.0 | 22.5 | 0.00 | 0.03 | 0.00 | 75 | 1020.8 |
| 20260906080053 | 13 | 282 | 12.9 | 24.1 | 0.00 | 0.03 | 0.00 | 75 | 1020.7 |
| 20260906080021 | 13 | 282 | 12.9 | 24.1 | 0.00 | 0.03 | 0.00 | 75 | 1020.7 |
| 20260906075519 | 13 | 289 | 9.7 | 24.1 | 0.00 | 0.03 | 0.00 | 75 | 1020.7 |
| 20260906075017 | 13 | 280 | 11.3 | 22.5 | 0.00 | 0.03 | 0.00 | 75 | 1020.6 |
| 20260906074535 | 13 | 292 | 11.3 | 25.7 | 0.00 | 0.03 | 0.00 | 75 | 1020.6 |
| 20260906074033 | 13 | 293 | 11.3 | 20.9 | 0.00 | 0.03 | 0.00 | 75 | 1020.4 |
| 20260906073531 | 13 | 280 | 14.5 | 29.0 | 0.00 | 0.03 | 0.00 | 74 | 1020.5 |
| 20260906073029 | 13 | 284 | 9.7 | 17.7 | 0.00 | 0.03 | 0.00 | 74 | 1020.4 |
| 20260906072527 | 13 | 267 | 17.7 | 41.8 | 0.00 | 0.03 | 0.00 | 73 | 1020.3 |
| 20260906072025 | 13 | 271 | 9.7 | 27.4 | 0.00 | 0.03 | 0.00 | 73 | 1020.3 |
| 20260906071523 | 13 | 293 | 9.7 | 17.7 | 0.00 | 0.03 | 0.00 | 73 | 1020.1 |
| 20260906071021 | 13 | 294 | 11.3 | 33.8 | 0.00 | 0.03 | 0.00 | 73 | 1020.2 |
| 20260906070519 | 13 | 288 | 14.5 | 35.4 | 0.00 | 0.03 | 0.00 | 73 | 1020.1 |
| 20260906070017 | 13 | 284 | 11.3 | 29.0 | 0.00 | 0.03 | 0.00 | 74 | 1020.0 |
| 20260906065535 | 13 | 279 | 11.3 | 24.1 | 0.00 | 0.03 | 0.00 | 74 | 1020.0 |
| 20260906065034 | 13 | 289 | 11.3 | 20.9 | 0.00 | 0.03 | 0.00 | 74 | 1019.9 |
| 20260906064531 | 13 | 299 | 11.3 | 24.1 | 0.00 | 0.03 | 0.00 | 74 | 1019.8 |
| 20260906064030 | 13 | 283 | 12.9 | 25.7 | 0.00 | 0.03 | 0.00 | 74 | 1019.8 |
| 20260906063528 | 13 | 290 | 14.5 | 29.0 | 0.00 | 0.03 | 0.00 | 74 | 1019.7 |
| 20260906063026 | 13 | 283 | 12.9 | 27.4 | 0.00 | 0.03 | 0.00 | 74 | 1019.6 |
| 20260906062524 | 13 | 282 | 12.9 | 24.1 | 0.00 | 0.03 | 0.00 | 74 | 1019.7 |
| 20260906062022 | 13 | 297 | 11.3 | 25.7 | 0.00 | 0.03 | 0.00 | 74 | 1019.7 |
| 20260906061520 | 13 | 276 | 16.1 | 27.4 | 0.00 | 0.03 | 0.00 | 74 | 1019.6 |
| 20260906061018 | 13 | 284 | 9.7 | 22.5 | 0.00 | 0.03 | 0.00 | 74 | 1019.6 |
| 20260906060516 | 13 | 280 | 14.5 | 33.8 | 0.00 | 0.03 | 0.00 | 74 | 1019.5 |
| 20260906060035 | 13 | 281 | 14.5 | 41.8 | 0.00 | 0.03 | 0.00 | 74 | 1019.4 |
| 20260906055533 | 13 | 277 | 12.9 | 33.8 | 0.00 | 0.03 | 0.00 | 75 | 1019.3 |
| 20260906055031 | 13 | 292 | 11.3 | 24.1 | 0.00 | 0.03 | 0.00 | 76 | 1019.3 |
| 20260906054529 | 13 | 294 | 11.3 | 33.8 | 0.00 | 0.03 | 0.00 | 76 | 1019.2 |
| 20260906054027 | 13 | 280 | 11.3 | 22.5 | 0.00 | 0.03 | 0.00 | 77 | 1019.2 |
| 20260906053525 | 13 | 275 | 12.9 | 29.0 | 0.00 | 0.03 | 0.00 | 77 | 1019.2 |
| 20260906053023 | 13 | 280 | 9.7 | 20.9 | 0.00 | 0.03 | 0.00 | 77 | 1019.2 |
| 20260906052522 | 13 | 287 | 11.3 | 29.0 | 0.00 | 0.03 | 0.00 | 78 | 1019.1 |
| 20260906052019 | 13 | 287 | 11.3 | 25.7 | 0.00 | 0.03 | 0.00 | 78 | 1019.1 |
| 20260906051518 | 13 | 292 | 12.9 | 25.7 | 0.00 | 0.03 | 0.00 | 78 | 1019.0 |
| 20260906051049 | 13 | 294 | 11.3 | 24.1 | 0.00 | 0.03 | 0.00 | 78 | 1019.1 |
| 20260906051015 | 13 | 294 | 11.3 | 24.1 | 0.00 | 0.03 | 0.00 | 78 | 1019.1 |
| 20260906050534 | 13 | 283 | 11.3 | 30.6 | 0.00 | 0.03 | 0.00 | 78 | 1018.9 |
| 20260906050032 | 13 | 279 | 9.7 | 22.5 | 0.00 | 0.03 | 0.00 | 78 | 1018.9 |
| 20260906045530 | 13 | 283 | 11.3 | 22.5 | 0.00 | 0.03 | 0.00 | 78 | 1018.9 |
| 20260906045028 | 13 | 281 | 11.3 | 25.7 | 0.00 | 0.03 | 0.00 | 78 | 1018.9 |
| 20260906044526 | 13 | 275 | 9.7 | 20.9 | 0.00 | 0.03 | 0.00 | 78 | 1018.8 |
| 20260906044024 | 13 | 279 | 12.9 | 22.5 | 0.00 | 0.03 | 0.00 | 78 | 1018.8 |
| 20260906043523 | 13 | 281 | 11.3 | 24.1 | 0.00 | 0.03 | 0.00 | 78 | 1018.8 |
| 20260906043415 | 13 | 281 | 12.9 | 33.8 | 0.00 | 0.03 | 0.00 | 78 | 1018.6 |
| 20260906043021 | 13 | 281 | 12.9 | 33.8 | 0.00 | 0.03 | 0.00 | 78 | 1018.6 |
| 20260906042518 | 13 | 284 | 12.9 | 30.6 | 0.00 | 0.03 | 0.00 | 79 | 1018.6 |
| 20260906042017 | 13 | 285 | 12.9 | 25.7 | 0.00 | 0.03 | 0.00 | 79 | 1018.5 |
| 20260906041535 | 13 | 274 | 12.9 | 37.0 | 0.00 | 0.03 | 0.00 | 79 | 1018.5 |
| 20260906041033 | 13 | 287 | 9.7 | 29.0 | 0.00 | 0.03 | 0.00 | 78 | 1018.4 |
| 20260906040531 | 13 | 291 | 12.9 | 27.4 | 0.00 | 0.03 | 0.00 | 79 | 1018.4 |
| 20260906040029 | 13 | 290 | 12.9 | 25.7 | 0.00 | 0.03 | 0.00 | 79 | 1018.2 |
| 20260906035527 | 13 | 289 | 11.3 | 22.5 | 0.00 | 0.03 | 0.00 | 79 | 1018.2 |
| 20260906035025 | 13 | 276 | 9.7 | 22.5 | 0.00 | 0.03 | 0.00 | 79 | 1018.2 |
| 20260906034523 | 13 | 270 | 11.3 | 20.9 | 0.00 | 0.03 | 0.00 | 79 | 1018.2 |
| 20260906034021 | 13 | 282 | 9.7 | 25.7 | 0.00 | 0.03 | 0.00 | 78 | 1018.2 |
| 20260906033519 | 13 | 277 | 11.3 | 20.9 | 0.00 | 0.03 | 0.00 | 78 | 1018.1 |
| 20260906033018 | 13 | 290 | 14.5 | 37.0 | 0.00 | 0.03 | 0.00 | 78 | 1018.0 |
| 20260906032516 | 13 | 293 | 8.0 | 17.7 | 0.00 | 0.03 | 0.00 | 79 | 1018.0 |
| 20260906032034 | 13 | 281 | 11.3 | 24.1 | 0.00 | 0.03 | 0.00 | 79 | 1018.0 |
| 20260906031532 | 13 | 286 | 11.3 | 25.7 | 0.00 | 0.03 | 0.00 | 79 | 1017.9 |
| 20260906031030 | 13 | 288 | 9.7 | 22.5 | 0.00 | 0.03 | 0.00 | 79 | 1017.9 |
| 20260906030528 | 13 | 280 | 9.7 | 27.4 | 0.00 | 0.03 | 0.00 | 79 | 1017.9 |
| 20260906030026 | 13 | 283 | 8.0 | 17.7 | 0.00 | 0.03 | 0.00 | 80 | 1017.8 |
| 20260906025524 | 13 | 280 | 11.3 | 17.7 | 0.00 | 0.03 | 0.00 | 80 | 1018.0 |
| 20260906025022 | 13 | 291 | 11.3 | 30.6 | 0.00 | 0.03 | 0.00 | 80 | 1017.8 |
| 20260906024520 | 13 | 287 | 11.3 | 29.0 | 0.00 | 0.03 | 0.00 | 80 | 1017.8 |
| 20260906024018 | 13 | 282 | 12.9 | 24.1 | 0.00 | 0.03 | 0.00 | 80 | 1017.7 |
| 20260906023517 | 13 | 287 | 9.7 | 24.1 | 0.00 | 0.05 | 0.00 | 80 | 1017.8 |
| 20260906023035 | 13 | 285 | 8.0 | 17.7 | 0.00 | 0.05 | 0.00 | 80 | 1017.8 |
| 20260906022533 | 13 | 278 | 9.7 | 24.1 | 0.00 | 0.05 | 0.00 | 80 | 1017.7 |
| 20260906022031 | 13 | 285 | 8.0 | 17.7 | 0.00 | 0.05 | 0.00 | 80 | 1017.7 |
| 20260906021529 | 13 | 288 | 9.7 | 20.9 | 0.00 | 0.05 | 0.00 | 80 | 1017.7 |
| 20260906021028 | 13 | 290 | 9.7 | 24.1 | 0.00 | 0.05 | 0.00 | 80 | 1017.7 |
| 20260906020526 | 13 | 270 | 11.3 | 29.0 | 0.00 | 0.05 | 0.00 | 80 | 1017.7 |
| 20260906020024 | 13 | 285 | 9.7 | 17.7 | 0.00 | 0.05 | 0.00 | 80 | 1017.7 |
| 20260906015522 | 13 | 288 | 9.7 | 20.9 | 0.00 | 0.05 | 0.00 | 80 | 1017.6 |
| 20260906015020 | 13 | 287 | 9.7 | 17.7 | 0.00 | 0.05 | 0.00 | 80 | 1017.7 |
| 20260906014519 | 13 | 282 | 9.7 | 25.7 | 0.00 | 0.05 | 0.00 | 80 | 1017.5 |
| 20260906014016 | 13 | 280 | 12.9 | 27.4 | 0.00 | 0.05 | 0.00 | 80 | 1017.6 |
| 20260906013534 | 13 | 290 | 11.3 | 24.1 | 0.00 | 0.05 | 0.00 | 80 | 1017.6 |
| 20260906013033 | 13 | 282 | 9.7 | 25.7 | 0.00 | 0.05 | 0.00 | 80 | 1017.5 |
| 20260906012531 | 13 | 285 | 14.5 | 27.4 | 0.00 | 0.05 | 0.00 | 80 | 1017.5 |
| 20260906012029 | 13 | 287 | 11.3 | 24.1 | 0.00 | 0.05 | 0.00 | 80 | 1017.6 |
| 20260906011527 | 13 | 271 | 12.9 | 24.1 | 0.00 | 0.05 | 0.00 | 80 | 1017.6 |
| 20260906011025 | 13 | 285 | 8.0 | 17.7 | 0.00 | 0.05 | 0.00 | 80 | 1017.5 |
| 20260906010524 | 13 | 271 | 11.3 | 20.9 | 0.00 | 0.05 | 0.00 | 80 | 1017.5 |
| 20260906010022 | 13 | 288 | 11.3 | 29.0 | 0.00 | 0.05 | 0.00 | 80 | 1017.5 |
| 20260906005520 | 13 | 273 | 11.3 | 22.5 | 0.00 | 0.05 | 0.00 | 80 | 1017.5 |
| 20260906005018 | 13 | 294 | 11.3 | 24.1 | 0.00 | 0.05 | 0.00 | 80 | 1017.5 |
| 20260906004516 | 13 | 281 | 11.3 | 24.1 | 0.00 | 0.08 | 0.00 | 80 | 1017.6 |
| 20260906004034 | 13 | 291 | 12.9 | 37.0 | 0.00 | 0.08 | 0.00 | 80 | 1017.4 |
| 20260906003532 | 13 | 288 | 9.7 | 16.1 | 0.00 | 0.08 | 0.00 | 81 | 1017.4 |
| 20260906003031 | 13 | 284 | 8.0 | 17.7 | 0.00 | 0.08 | 0.00 | 80 | 1017.4 |
| 20260906002529 | 13 | 289 | 9.7 | 20.9 | 0.00 | 0.08 | 0.00 | 80 | 1017.5 |
| 20260906002027 | 13 | 286 | 11.3 | 27.4 | 0.00 | 0.08 | 0.00 | 80 | 1017.3 |
| 20260906001525 | 13 | 291 | 9.7 | 17.7 | 0.00 | 0.08 | 0.00 | 80 | 1017.4 |
| 20260906001023 | 13 | 278 | 8.0 | 16.1 | 0.00 | 0.08 | 0.00 | 80 | 1017.3 |
| 20260906000521 | 13 | 298 | 9.7 | 22.5 | 0.00 | 0.10 | 0.00 | 80 | 1017.2 |
| 20260906000019 | 13 | 290 | 9.7 | 22.5 | 0.00 | 0.10 | 0.00 | 80 | 1017.3 |
| 20260905235518 | 13 | 296 | 11.3 | 25.7 | 0.00 | 0.13 | 0.00 | 79 | 1017.4 |
| 20260905235015 | 13 | 301 | 11.3 | 24.1 | 0.00 | 0.13 | 0.00 | 80 | 1017.3 |
| 20260905234534 | 13 | 281 | 9.7 | 20.9 | 0.00 | 0.13 | 0.00 | 80 | 1017.2 |
| 20260905234032 | 13 | 281 | 9.7 | 20.9 | 0.00 | 0.13 | 0.00 | 80 | 1017.2 |
| 20260905233530 | 13 | 299 | 9.7 | 22.5 | 0.00 | 0.13 | 0.00 | 80 | 1017.2 |
| 20260905233028 | 13 | 283 | 8.0 | 27.4 | 0.00 | 0.13 | 0.00 | 80 | 1017.3 |
| 20260905232526 | 13 | 283 | 11.3 | 22.5 | 0.00 | 0.13 | 0.00 | 80 | 1017.3 |
| 20260905232025 | 13 | 287 | 9.7 | 25.7 | 0.00 | 0.13 | 0.00 | 80 | 1017.2 |
| 20260905231523 | 13 | 285 | 11.3 | 24.1 | 0.00 | 0.13 | 0.00 | 79 | 1017.2 |
| 20260905231021 | 13 | 286 | 9.7 | 22.5 | 0.00 | 0.13 | 0.00 | 79 | 1017.1 |
| 20260905230519 | 13 | 275 | 9.7 | 24.1 | 0.00 | 0.13 | 0.00 | 79 | 1017.1 |
| 20260905230049 | 13 | 280 | 11.3 | 27.4 | 0.00 | 0.13 | 0.00 | 79 | 1017.1 |
| 20260905230017 | 13 | 280 | 11.3 | 27.4 | 0.00 | 0.13 | 0.00 | 79 | 1017.1 |
| 20260905225535 | 13 | 290 | 11.3 | 24.1 | 0.00 | 0.13 | 0.00 | 79 | 1017.0 |
| 20260905225034 | 13 | 281 | 11.3 | 20.9 | 0.00 | 0.13 | 0.00 | 79 | 1017.1 |
| 20260905224532 | 13 | 282 | 9.7 | 17.7 | 0.00 | 0.13 | 0.00 | 79 | 1017.2 |
| 20260905224030 | 13 | 281 | 9.7 | 17.7 | 0.00 | 0.13 | 0.00 | 79 | 1017.2 |
| 20260905223528 | 13 | 279 | 9.7 | 20.9 | 0.00 | 0.13 | 0.00 | 79 | 1017.1 |
| 20260905223026 | 13 | 278 | 11.3 | 25.7 | 0.00 | 0.13 | 0.00 | 79 | 1017.0 |
| 20260905222524 | 13 | 283 | 11.3 | 25.7 | 0.00 | 0.13 | 0.00 | 78 | 1017.2 |
| 20260905222022 | 13 | 290 | 9.7 | 24.1 | 0.00 | 0.13 | 0.00 | 78 | 1017.2 |
| 20260905221520 | 13 | 289 | 9.7 | 22.5 | 0.00 | 0.13 | 0.00 | 77 | 1017.1 |
| 20260905221019 | 13 | 282 | 8.0 | 24.1 | 0.00 | 0.13 | 0.00 | 77 | 1017.1 |
| 20260905220517 | 13 | 286 | 8.0 | 16.1 | 0.00 | 0.13 | 0.00 | 77 | 1017.0 |
| 20260905220035 | 13 | 285 | 8.0 | 20.9 | 0.00 | 0.13 | 0.13 | 77 | 1017.0 |
| 20260905215533 | 13 | 288 | 9.7 | 24.1 | 0.00 | 0.13 | 0.13 | 76 | 1017.0 |
| 20260905215032 | 13 | 274 | 11.3 | 29.0 | 0.00 | 0.13 | 0.13 | 76 | 1016.9 |
| 20260905214529 | 13 | 284 | 9.7 | 25.7 | 0.00 | 0.13 | 0.13 | 76 | 1016.9 |
| 20260905214027 | 13 | 286 | 9.7 | 20.9 | 0.00 | 0.13 | 0.13 | 76 | 1017.0 |
| 20260905213526 | 14 | 295 | 11.3 | 17.7 | 0.00 | 0.13 | 0.13 | 76 | 1016.8 |
| 20260905213024 | 14 | 287 | 9.7 | 22.5 | 0.00 | 0.13 | 0.13 | 76 | 1016.7 |
| 20260905212522 | 14 | 285 | 8.0 | 20.9 | 0.00 | 0.13 | 0.13 | 76 | 1016.6 |
| 20260905212020 | 14 | 278 | 9.7 | 22.5 | 0.00 | 0.13 | 0.13 | 76 | 1016.7 |
| 20260905211518 | 14 | 278 | 11.3 | 24.1 | 0.00 | 0.13 | 0.13 | 76 | 1016.7 |
| 20260905211016 | 14 | 282 | 12.9 | 24.1 | 0.00 | 0.18 | 0.13 | 76 | 1016.6 |
| 20260905210534 | 14 | 284 | 11.3 | 20.9 | 0.00 | 0.20 | 0.13 | 75 | 1016.6 |
| 20260905210032 | 14 | 282 | 12.9 | 24.1 | 0.00 | 0.20 | 0.13 | 75 | 1016.5 |
| 20260905205531 | 14 | 280 | 12.9 | 24.1 | 0.00 | 0.20 | 0.13 | 74 | 1016.6 |
| 20260905205029 | 14 | 284 | 12.9 | 25.7 | 0.00 | 0.20 | 0.13 | 74 | 1016.6 |
| 20260905204527 | 14 | 279 | 12.9 | 27.4 | 0.00 | 0.20 | 0.13 | 74 | 1016.6 |
| 20260905204025 | 14 | 282 | 16.1 | 41.8 | 0.00 | 0.20 | 0.13 | 74 | 1016.6 |
| 20260905203523 | 14 | 279 | 14.5 | 35.4 | 0.00 | 0.23 | 0.13 | 75 | 1016.6 |
| 20260905203021 | 15 | 291 | 11.3 | 20.9 | 0.00 | 0.23 | 0.13 | 74 | 1016.5 |
| 20260905202520 | 15 | 289 | 12.9 | 30.6 | 0.00 | 0.23 | 0.13 | 74 | 1016.5 |
| 20260905202018 | 15 | 277 | 11.3 | 22.5 | 0.00 | 0.23 | 0.13 | 74 | 1016.4 |
| 20260905201516 | 15 | 279 | 9.7 | 24.1 | 0.00 | 0.23 | 0.13 | 74 | 1016.4 |
| 20260905201034 | 15 | 288 | 12.9 | 25.7 | 0.00 | 0.23 | 0.13 | 74 | 1016.3 |
| 20260905200532 | 15 | 266 | 12.9 | 30.6 | 0.00 | 0.23 | 0.13 | 75 | 1016.4 |
| 20260905200030 | 15 | 291 | 6.4 | 14.5 | 0.00 | 0.23 | 0.13 | 76 | 1016.4 |
| 20260905195528 | 15 | 284 | 6.4 | 17.7 | 0.00 | 0.23 | 0.13 | 76 | 1016.2 |
| 20260905195026 | 15 | 283 | 4.8 | 12.9 | 0.00 | 0.23 | 0.13 | 76 | 1016.4 |
| 20260905194524 | 15 | 278 | 4.8 | 12.9 | 0.00 | 0.23 | 0.13 | 76 | 1016.3 |
| 20260905194022 | 15 | 284 | 6.4 | 17.7 | 0.00 | 0.23 | 0.13 | 76 | 1016.3 |
| 20260905193520 | 15 | 275 | 6.4 | 16.1 | 0.00 | 0.23 | 0.13 | 76 | 1016.3 |
| 20260905193019 | 15 | 283 | 4.8 | 9.7 | 0.03 | 0.23 | 0.13 | 75 | 1016.2 |
| 20260905192516 | 15 | 283 | 4.8 | 16.1 | 0.03 | 0.23 | 0.13 | 75 | 1016.2 |
| 20260905192035 | 15 | 285 | 8.0 | 17.7 | 0.03 | 0.23 | 0.13 | 75 | 1016.5 |
| 20260905191532 | 15 | 268 | 4.8 | 9.7 | 0.03 | 0.23 | 0.13 | 74 | 1016.4 |
| 20260905191043 | 15 | 286 | 4.8 | 11.3 | 0.03 | 0.23 | 0.13 | 73 | 1016.6 |
| 20260905191030 | 15 | 272 | 3.2 | 11.3 | 0.03 | 0.23 | 0.13 | 73 | 1016.4 |
| 20260905190528 | 15 | 286 | 4.8 | 11.3 | 0.03 | 0.23 | 0.13 | 73 | 1016.6 |
| 20260905190026 | 15 | 270 | 4.8 | 6.4 | 0.03 | 0.23 | 0.13 | 73 | 1016.6 |
| 20260905185524 | 15 | 299 | 4.8 | 11.3 | 0.03 | 0.23 | 0.13 | 74 | 1016.7 |
| 20260905185023 | 15 | 289 | 4.8 | 11.3 | 0.03 | 0.23 | 0.13 | 73 | 1016.4 |
| 20260905184521 | 15 | 278 | 1.6 | 6.4 | 0.03 | 0.23 | 0.13 | 72 | 1016.4 |
| 20260905184018 | 15 | 277 | 4.8 | 12.9 | 0.03 | 0.23 | 0.13 | 73 | 1016.5 |
| 20260905183517 | 15 | 281 | 6.4 | 20.9 | 0.03 | 0.23 | 0.13 | 73 | 1016.6 |
| 20260905183035 | 15 | 286 | 6.4 | 14.5 | 0.00 | 0.20 | 0.10 | 72 | 1016.7 |
| 20260905182533 | 16 | 288 | 9.7 | 22.5 | 0.00 | 0.20 | 0.10 | 72 | 1016.9 |
| 20260905182031 | 16 | 286 | 9.7 | 24.1 | 0.00 | 0.20 | 0.10 | 69 | 1017.0 |
| 20260905181529 | 16 | 312 | 9.7 | 20.9 | 0.00 | 0.20 | 0.10 | 67 | 1016.9 |
| 20260905181028 | 16 | 303 | 8.0 | 16.1 | 0.00 | 0.20 | 0.10 | 66 | 1016.8 |
| 20260905180526 | 16 | 300 | 3.2 | 6.4 | 0.00 | 0.20 | 0.10 | 64 | 1016.6 |
| 20260905180024 | 16 | 324 | 1.6 | 6.4 | 0.00 | 0.20 | 0.10 | 63 | 1016.2 |
| 20260905175522 | 17 | 0.0 | 0.0 | 0.00 | 0.20 | 0.10 | 63 | 1016.1 | |
| 20260905175020 | 17 | 0.0 | 0.0 | 0.00 | 0.20 | 0.10 | 63 | 1016.1 | |
| 20260905174519 | 17 | 270 | 0.0 | 4.8 | 0.00 | 0.20 | 0.10 | 63 | 1016.1 |
| 20260905174016 | 17 | 0.0 | 0.0 | 0.00 | 0.20 | 0.10 | 62 | 1016.0 | |
| 20260905173534 | 17 | 0.0 | 0.0 | 0.00 | 0.20 | 0.10 | 62 | 1015.9 | |
| 20260905173033 | 17 | 284 | 1.6 | 4.8 | 0.00 | 0.20 | 0.10 | 62 | 1015.9 |
| 20260905172531 | 17 | 0.0 | 0.0 | 0.00 | 0.20 | 0.10 | 62 | 1015.8 | |
| 20260905172029 | 17 | 285 | 1.6 | 4.8 | 0.00 | 0.20 | 0.10 | 62 | 1015.7 |
| 20260905171527 | 17 | 290 | 1.6 | 4.8 | 0.00 | 0.20 | 0.10 | 62 | 1015.8 |
| 20260905171025 | 17 | 286 | 4.8 | 11.3 | 0.00 | 0.20 | 0.10 | 61 | 1015.9 |
| 20260905170523 | 17 | 289 | 1.6 | 6.4 | 0.00 | 0.20 | 0.10 | 61 | 1015.7 |
| 20260905170022 | 17 | 293 | 4.8 | 12.9 | 0.00 | 0.20 | 0.10 | 61 | 1015.8 |
| 20260905165519 | 17 | 286 | 4.8 | 12.9 | 0.00 | 0.20 | 0.10 | 61 | 1015.8 |